Waarnemingen

Advertentie
Mijn weer
J6-A, Nederland (6211): temperatuur & dauwpunt: 15.07.2017 06:00:00 - 21.07.2017 06:00:00 (CEST)J6-A, Nederland (6211): windsnelheid & windstoten: 15.07.2017 06:00:00 - 21.07.2017 06:00:00 (CEST)J6-A, Nederland (6211): windrichting: 15.07.2017 06:00:00 - 21.07.2017 06:00:00 (CEST)J6-A, Nederland (6211): luchtdruk: 15.07.2017 06:00:00 - 21.07.2017 06:00:00 (CEST)J6-A, Nederland (6211): zicht: 15.07.2017 06:00:00 - 21.07.2017 06:00:00 (CEST)
Datum & Tijd tt [°C] td [°C] ff [km/u] ff [kn] fx [km/u] fx [kn] dd ppp [hPa] vv [km]
21.07.2017 06:00:00 16,6 13,2 22 12 25 14 Z 1011,3 44
21.07.2017 05:00:00 16,2 13,4 26 14 - - Z 1011,2 10
21.07.2017 04:00:00 16,0 12,9 26 14 25 14 Z 1011,2 10
21.07.2017 03:00:00 15,9 12,0 21 11 22 12 ZZO 1011,2 10
21.07.2017 02:00:00 15,5 11,6 11 6 - - ZZW 1011,0 10
21.07.2017 01:00:00 15,4 11,1 18 10 22 12 ZW 1010,7 10
21.07.2017 00:00:00 15,0 11,2 18 10 25 14 ZW 1010,4 45
20.07.2017 23:00:00 14,8 10,5 24 13 - - W 1009,9 10
20.07.2017 22:00:00 14,5 11,5 37 20 43 23 W 1009,2 10
20.07.2017 21:00:00 14,3 12,9 36 19 50 27 W 1007,7 12
20.07.2017 20:00:00 14,8 12,5 40 21 - - W 1006,6 31
20.07.2017 19:00:00 14,8 13,3 58 31 68 37 W 1004,6 15
20.07.2017 18:00:00 16,4 14,9 29 16 54 29 Z 1004,3 10
20.07.2017 17:00:00 17,9 16,6 29 16 32 18 ZZO 1004,4 10
20.07.2017 16:00:00 18,3 16,9 28 15 29 16 Z 1004,6 10
20.07.2017 15:00:00 18,2 17,1 28 15 25 14 Z 1004,8 7
20.07.2017 14:00:00 18,0 17,2 24 13 - - Z 1004,7 5
20.07.2017 13:00:00 17,9 16,7 18 10 22 12 Z 1004,8 10
20.07.2017 12:00:00 17,7 16,3 21 11 18 10 Z 1005,0 10
20.07.2017 11:00:00 17,5 16,5 18 10 - - Z 1005,0 9
20.07.2017 10:00:00 17,4 16,4 18 10 18 10 Z 1005,0 12
20.07.2017 09:00:00 17,3 16,3 18 10 29 16 ZZW 1005,1 13
20.07.2017 08:00:00 17,5 16,2 29 16 - - ZZW 1004,6 10
20.07.2017 07:00:00 17,5 16,3 31 17 36 19 ZZW 1004,1 10
20.07.2017 06:00:00 17,6 16,5 28 15 32 18 ZZW 1004,5 10
20.07.2017 05:00:00 17,8 16,7 37 20 - - ZZW 1004,6 10
20.07.2017 04:00:00 18,1 16,9 35 19 40 21 ZZW 1004,4 10
20.07.2017 03:00:00 17,8 17,0 28 15 25 14 Z 1005,0 10
20.07.2017 02:00:00 17,9 16,9 24 13 - - ZZW 1005,1 10
20.07.2017 01:00:00 17,8 17,0 25 14 29 16 ZZW 1005,4 12
20.07.2017 00:00:00 18,0 16,9 34 18 36 19 ZZW 1005,4 10
19.07.2017 23:00:00 18,1 16,9 31 17 - - Z 1005,4 10
19.07.2017 22:00:00 18,2 16,8 29 16 32 18 ZZO 1005,1 10
19.07.2017 21:00:00 18,4 16,9 34 18 32 18 ZO 1005,0 10
19.07.2017 20:00:00 18,7 17,1 35 19 - - ZZO 1004,6 10
19.07.2017 19:00:00 19,2 17,1 34 18 40 21 ZO 1004,4 10
19.07.2017 18:00:00 19,1 17,0 42 23 40 21 OZO 1004,7 10
19.07.2017 17:00:00 19,0 16,7 48 26 - - OZO 1004,9 10
19.07.2017 16:00:00 18,7 16,3 61 33 65 35 O 1005,5 10
19.07.2017 15:00:00 18,3 15,7 67 36 65 35 O 1005,9 10
19.07.2017 14:00:00 18,3 15,7 55 30 - - ONO 1006,1 9
19.07.2017 13:00:00 17,4 15,8 65 35 61 33 NO 1006,3 10
19.07.2017 12:00:00 17,2 15,6 61 33 65 35 ONO 1007,0 10
19.07.2017 11:00:00 18,4 15,8 55 30 54 29 O 1009,1 10
19.07.2017 10:00:00 17,2 15,9 40 21 50 27 ONO 1009,6 8
19.07.2017 09:00:00 17,4 15,4 55 30 54 29 ONO 1013,8 10
19.07.2017 08:00:00 17,2 15,4 55 30 - - ONO 1010,5 10
19.07.2017 07:00:00 16,9 15,4 47 25 54 29 ONO 1011,2 11
19.07.2017 06:00:00 16,9 15,3 52 28 54 29 ONO 1012,4 10
19.07.2017 05:00:00 16,7 15,3 50 27 50 27 ONO 1012,9 10
19.07.2017 04:00:00 16,7 15,0 48 26 50 27 ONO 1013,8 10
19.07.2017 03:00:00 16,7 14,7 48 26 50 27 ONO 1014,6 10
19.07.2017 02:00:00 16,8 14,9 46 25 - - ONO 1015,3 10
19.07.2017 01:00:00 16,6 14,7 46 25 47 25 ONO 1015,8 10
19.07.2017 00:00:00 16,5 14,5 44 24 43 23 ONO 1016,0 10
18.07.2017 23:00:00 16,5 14,0 44 24 - - ONO 1017,0 10
18.07.2017 22:00:00 16,6 13,9 41 22 43 23 ONO 1017,2 10
18.07.2017 21:00:00 16,6 13,3 36 19 40 21 ONO 1017,8 28
18.07.2017 20:00:00 17,5 13,4 37 20 - - ONO 1018,6 10
18.07.2017 19:00:00 17,6 13,2 34 18 32 18 ONO 1019,0 10
18.07.2017 18:00:00 17,8 13,1 31 17 32 18 ONO 1019,6 10
18.07.2017 17:00:00 17,7 13,3 29 16 - - O 1019,8 10
18.07.2017 16:00:00 17,5 13,4 25 14 29 16 O 1020,3 27
18.07.2017 15:00:00 17,3 13,5 29 16 29 16 ONO 1021,0 10
18.07.2017 14:00:00 17,2 13,6 22 12 - - ONO 1021,5 24
18.07.2017 13:00:00 16,8 13,3 26 14 25 14 O 1022,0 10
18.07.2017 12:00:00 16,4 13,0 26 14 25 14 O 1022,3 10
18.07.2017 11:00:00 16,6 12,4 22 12 22 12 ONO 1022,6 10
18.07.2017 10:00:00 16,4 12,4 21 11 22 12 ONO 1022,6 10
18.07.2017 09:00:00 15,9 12,0 16 9 18 10 ONO 1022,6 10
18.07.2017 08:00:00 15,6 12,0 16 9 22 12 ONO 1022,6 10
18.07.2017 07:00:00 15,5 12,0 13 7 14 8 ONO 1022,6 10
18.07.2017 06:00:00 15,5 12,2 11 6 18 10 ONO 1022,6 10
18.07.2017 05:00:00 15,4 12,6 9 5 11 6 ONO 1022,7 10
18.07.2017 04:00:00 15,4 12,6 8 4 7 4 ONO 1022,9 10
18.07.2017 03:00:00 15,3 12,4 5 3 7 4 OZO 1023,0 10
18.07.2017 02:00:00 15,4 12,2 4 2 7 4 - 1023,1 10
18.07.2017 01:00:00 15,4 12,2 5 3 7 4 ZO 1023,3 10
18.07.2017 00:00:00 15,4 12,0 4 2 7 4 OZO 1023,3 42
17.07.2017 23:00:00 15,3 12,1 4 2 4 2 - 1023,3 10
17.07.2017 22:00:00 15,4 12,1 2 1 7 4 NO 1023,4 10
17.07.2017 21:00:00 15,7 12,0 4 2 7 4 O 1023,1 10
17.07.2017 20:00:00 15,8 12,0 5 3 7 4 N 1023,1 10
17.07.2017 19:00:00 15,4 12,1 5 3 11 6 NW 1023,2 10
17.07.2017 18:00:00 15,3 11,6 9 5 14 8 NW 1023,3 10
17.07.2017 17:00:00 15,6 11,6 13 7 14 8 WNW 1023,5 10
17.07.2017 16:00:00 15,2 11,9 15 8 18 10 W 1023,4 10
17.07.2017 15:00:00 15,2 12,6 16 9 18 10 WNW 1023,3 10
17.07.2017 14:00:00 15,0 12,9 18 10 22 12 W 1023,5 10
17.07.2017 13:00:00 14,9 12,5 21 11 22 12 W 1023,2 10
17.07.2017 12:00:00 15,2 11,8 21 11 22 12 W 1023,2 10
17.07.2017 11:00:00 15,4 11,7 22 12 22 12 W 1023,4 10
17.07.2017 10:00:00 15,3 12,3 22 12 25 14 W 1023,3 10
17.07.2017 09:00:00 15,3 12,3 21 11 25 14 W 1023,0 10
17.07.2017 08:00:00 15,2 13,0 22 12 25 14 W 1022,9 10
17.07.2017 07:00:00 15,1 12,4 26 14 25 14 W 1022,8 10
17.07.2017 06:00:00 14,8 12,7 24 13 25 14 WZW 1022,6 10
17.07.2017 05:00:00 15,1 12,1 24 13 25 14 W 1022,6 10
17.07.2017 04:00:00 15,0 12,8 24 13 25 14 W 1022,6 10
17.07.2017 03:00:00 15,0 13,2 22 12 22 12 WZW 1022,7 10
17.07.2017 02:00:00 15,0 12,6 18 10 18 10 WZW 1022,7 10
17.07.2017 01:00:00 15,1 12,4 15 8 14 8 ZW 1022,7 10
17.07.2017 00:00:00 15,0 12,3 11 6 14 8 WZW 1022,7 10
16.07.2017 23:00:00 15,0 12,1 5 3 7 4 W 1022,6 10
16.07.2017 22:00:00 15,2 11,8 9 5 11 6 WNW 1022,6 10
16.07.2017 21:00:00 15,3 11,9 9 5 14 8 WNW 1022,4 10
16.07.2017 20:00:00 15,4 12,2 16 9 18 10 WNW 1022,3 10
16.07.2017 19:00:00 15,5 12,1 21 11 18 10 NW 1022,3 10
16.07.2017 18:00:00 15,3 12,5 16 9 18 10 WNW 1022,2 10
16.07.2017 17:00:00 15,3 12,4 18 10 22 12 NW 1022,1 10
16.07.2017 16:00:00 15,4 12,7 24 13 25 14 NW 1021,8 10
16.07.2017 15:00:00 15,5 13,4 24 13 22 12 WNW 1021,5 10
16.07.2017 14:00:00 15,6 14,0 22 12 22 12 NW 1021,2 10
16.07.2017 13:00:00 15,6 14,5 26 14 25 14 WNW 1020,8 10
16.07.2017 12:00:00 15,6 14,6 26 14 25 14 WNW 1020,4 10
16.07.2017 11:00:00 15,7 15,1 22 12 25 14 WNW 1020,0 10
16.07.2017 10:00:00 16,0 15,3 28 15 36 19 W 1019,6 10
16.07.2017 09:00:00 16,3 15,4 39 21 40 21 W 1019,0 10
16.07.2017 08:00:00 16,6 15,6 42 23 47 25 WZW 1018,7 10
16.07.2017 07:00:00 16,8 15,7 48 26 50 27 WZW 1018,2 10
16.07.2017 06:00:00 16,9 15,7 50 27 50 27 WZW 1017,9 10
16.07.2017 05:00:00 17,0 15,8 52 28 50 27 WZW 1017,9 10
16.07.2017 04:00:00 17,2 16,0 44 24 47 25 ZW 1017,8 10
16.07.2017 03:00:00 17,3 16,1 46 25 43 23 ZW 1017,9 10
16.07.2017 02:00:00 17,2 16,0 42 23 43 23 ZW 1018,0 10
16.07.2017 01:00:00 17,2 15,9 35 19 32 18 ZZW 1018,1 10
16.07.2017 00:00:00 17,1 15,8 34 18 32 18 ZZW 1018,3 10
15.07.2017 23:00:00 16,9 15,6 31 17 29 16 Z 1018,5 10
15.07.2017 22:00:00 16,6 14,7 29 16 32 18 Z 1018,4 10
15.07.2017 21:00:00 16,3 14,6 28 15 29 16 Z 1018,7 10
15.07.2017 20:00:00 16,2 14,2 28 15 25 14 ZZW 1018,7 10
15.07.2017 19:00:00 16,1 14,7 29 16 29 16 Z 1019,0 10
15.07.2017 18:00:00 16,0 13,9 31 17 29 16 Z 1019,2 10
15.07.2017 17:00:00 16,1 13,0 26 14 25 14 Z 1019,7 10
15.07.2017 16:00:00 16,1 12,2 28 15 25 14 ZZW 1019,9 10
15.07.2017 15:00:00 15,9 12,4 26 14 29 16 ZZW 1020,0 10
15.07.2017 14:00:00 15,7 12,3 31 17 29 16 ZZW 1020,4 10
15.07.2017 13:00:00 15,6 11,5 29 16 29 16 ZW 1020,6 10
15.07.2017 12:00:00 15,2 11,9 26 14 29 16 ZZW 1020,4 10
15.07.2017 11:00:00 15,0 12,5 22 12 22 12 ZW 1020,4 10
15.07.2017 10:00:00 14,8 12,7 18 10 18 10 ZW 1020,4 10
15.07.2017 09:00:00 14,8 13,0 13 7 14 8 ZZW 1020,4 10
15.07.2017 08:00:00 14,9 12,6 5 3 11 6 ZW 1019,7 10
15.07.2017 07:00:00 14,6 12,3 13 7 14 8 W 1020,0 10
15.07.2017 06:00:00 14,9 11,8 16 9 18 10 W 1020,0 10

tt = temperatuur
td = dauwpunt
ff = windsnelheid
fx = windstoten
dd = windrichting
ppp = luchtdruk
vv = zicht

Weerstations in de omgeving